Time,TemperatureF,DewpointF,PressureIn,WindDirection,WindDirectionDegrees,WindSpeedMPH,WindSpeedGustMPH,Humidity,HourlyPrecipIn,Conditions,Clouds,dailyrainin,SoftwareType,DateUTC
2013-06-28 00:02:00,68.9,38.7,29.86,WSW,252,3.0,9.0,33,0.00,,,0.00,meteohub,2013-06-28 06:02:00,
2013-06-28 00:07:00,68.7,38.5,29.86,SW,221,4.0,9.0,33,0.00,,,0.00,meteohub,2013-06-28 06:07:00,
2013-06-28 00:12:00,68.4,38.1,29.86,SW,236,4.0,9.0,33,0.00,,,0.00,meteohub,2013-06-28 06:12:00,
2013-06-28 00:17:00,68.2,38.7,29.86,WSW,242,7.0,9.0,34,0.00,,,0.00,meteohub,2013-06-28 06:17:00,
2013-06-28 00:22:00,68.2,37.9,29.86,WSW,251,4.0,8.0,33,0.00,,,0.00,meteohub,2013-06-28 06:22:00,
2013-06-28 00:27:00,68.0,38.7,29.87,West,260,4.0,8.0,34,0.00,,,0.00,meteohub,2013-06-28 06:27:00,
2013-06-28 00:32:00,68.2,39.6,29.87,SW,217,4.0,9.0,35,0.00,,,0.00,meteohub,2013-06-28 06:32:00,
2013-06-28 00:37:00,68.4,39.6,29.87,SSW,193,5.0,13.0,35,0.00,,,0.00,meteohub,2013-06-28 06:37:00,
2013-06-28 00:42:00,68.4,39.6,29.87,SSW,200,5.0,13.0,35,0.00,,,0.00,meteohub,2013-06-28 06:42:00,
2013-06-28 00:47:00,68.4,40.3,29.88,SSW,198,5.0,11.0,36,0.00,,,0.00,meteohub,2013-06-28 06:47:00,
2013-06-28 00:52:00,68.2,40.3,29.88,SSW,211,4.0,12.0,36,0.00,,,0.00,meteohub,2013-06-28 06:52:00,
2013-06-28 00:57:00,68.2,40.3,29.88,SW,225,5.0,12.0,36,0.00,,,0.00,meteohub,2013-06-28 06:57:00,
2013-06-28 01:02:00,68.2,41.0,29.88,South,183,5.0,14.0,37,0.00,,,0.00,meteohub,2013-06-28 07:02:00,
2013-06-28 01:07:00,68.2,41.0,29.88,SW,218,5.0,14.0,37,0.00,,,0.00,meteohub,2013-06-28 07:07:00,
2013-06-28 01:12:00,68.2,41.0,29.88,South,191,8.0,14.0,37,0.00,,,0.00,meteohub,2013-06-28 07:12:00,
2013-06-28 01:17:00,67.8,40.6,29.88,SSW,205,5.0,11.0,37,0.00,,,0.00,meteohub,2013-06-28 07:17:00,
2013-06-28 01:22:00,67.8,40.6,29.88,SW,225,5.0,11.0,37,0.00,,,0.00,meteohub,2013-06-28 07:22:00,
2013-06-28 01:27:00,67.8,40.6,29.88,SSW,198,3.0,10.0,37,0.00,,,0.00,meteohub,2013-06-28 07:27:00,
2013-06-28 01:32:00,67.6,41.2,29.88,SW,219,3.0,10.0,38,0.00,,,0.00,meteohub,2013-06-28 07:32:00,
2013-06-28 01:37:00,67.5,41.0,29.88,SW,228,4.0,9.0,38,0.00,,,0.00,meteohub,2013-06-28 07:37:00,
2013-06-28 01:42:00,67.5,41.0,29.88,WSW,240,3.0,7.0,38,0.00,,,0.00,meteohub,2013-06-28 07:42:00,
2013-06-28 01:47:00,67.1,41.4,29.87,SW,229,2.0,6.0,39,0.00,,,0.00,meteohub,2013-06-28 07:47:00,
2013-06-28 01:52:00,67.1,41.4,29.87,WSW,256,3.0,6.0,39,0.00,,,0.00,meteohub,2013-06-28 07:52:00,
2013-06-28 01:57:00,66.9,41.2,29.87,WSW,242,4.0,7.0,39,0.00,,,0.00,meteohub,2013-06-28 07:57:00,
2013-06-28 02:02:00,66.7,41.0,29.86,WSW,238,6.0,7.0,39,0.00,,,0.00,meteohub,2013-06-28 08:02:00,
2013-06-28 02:07:00,66.9,41.9,29.86,SW,228,4.0,7.0,40,0.00,,,0.00,meteohub,2013-06-28 08:07:00,
2013-06-28 02:12:00,66.7,41.7,29.87,WSW,238,3.0,7.0,40,0.00,,,0.00,meteohub,2013-06-28 08:12:00,
2013-06-28 02:17:00,66.6,41.5,29.86,WSW,250,3.0,7.0,40,0.00,,,0.00,meteohub,2013-06-28 08:17:00,
2013-06-28 02:22:00,66.4,41.9,29.86,WSW,238,4.0,5.0,41,0.00,,,0.00,meteohub,2013-06-28 08:22:00,
2013-06-28 02:27:00,66.4,41.9,29.86,SW,225,3.0,6.0,41,0.00,,,0.00,meteohub,2013-06-28 08:27:00,
2013-06-28 02:32:00,66.6,42.1,29.86,SW,232,3.0,6.0,41,0.00,,,0.00,meteohub,2013-06-28 08:32:00,
2013-06-28 02:37:00,66.7,41.7,29.86,WSW,245,0.0,6.0,40,0.00,,,0.00,meteohub,2013-06-28 08:37:00,
2013-06-28 02:42:00,66.2,41.2,29.86,East,94,0.0,4.0,40,0.00,,,0.00,meteohub,2013-06-28 08:42:00,
2013-06-28 02:47:00,65.5,41.2,29.86,SE,141,0.0,4.0,41,0.00,,,0.00,meteohub,2013-06-28 08:47:00,
2013-06-28 02:52:00,65.1,41.5,29.86,SE,139,0.0,1.0,42,0.00,,,0.00,meteohub,2013-06-28 08:52:00,
2013-06-28 02:57:00,64.4,40.8,29.86,SE,139,0.0,1.0,42,0.00,,,0.00,meteohub,2013-06-28 08:57:00,
2013-06-28 03:02:00,64.0,40.5,29.86,SSE,164,0.0,0.0,42,0.00,,,0.00,meteohub,2013-06-28 09:02:00,
2013-06-28 03:07:00,63.7,41.4,29.86,SSE,163,0.0,0.0,44,0.00,,,0.00,meteohub,2013-06-28 09:07:00,
2013-06-28 03:12:00,63.7,41.9,29.86,SW,224,0.0,0.0,45,0.00,,,0.00,meteohub,2013-06-28 09:12:00,
2013-06-28 03:17:00,63.7,41.9,29.86,SW,236,1.0,2.0,45,0.00,,,0.00,meteohub,2013-06-28 09:17:00,
2013-06-28 03:22:00,63.7,42.4,29.86,WSW,240,1.0,2.0,46,0.00,,,0.00,meteohub,2013-06-28 09:22:00,
2013-06-28 03:27:00,63.5,42.3,29.86,SSW,195,0.0,2.0,46,0.00,,,0.00,meteohub,2013-06-28 09:27:00,
2013-06-28 03:32:00,63.3,42.8,29.86,WSW,250,1.0,2.0,47,0.00,,,0.00,meteohub,2013-06-28 09:32:00,
2013-06-28 03:37:00,63.3,42.8,29.86,West,274,0.0,2.0,47,0.00,,,0.00,meteohub,2013-06-28 09:37:00,
2013-06-28 03:42:00,63.1,42.6,29.86,West,273,0.0,3.0,47,0.00,,,0.00,meteohub,2013-06-28 09:42:00,
2013-06-28 03:47:00,63.1,43.2,29.86,WSW,249,1.0,3.0,48,0.00,,,0.00,meteohub,2013-06-28 09:47:00,
2013-06-28 03:52:00,63.0,43.0,29.86,SW,233,1.0,3.0,48,0.00,,,0.00,meteohub,2013-06-28 09:52:00,
2013-06-28 03:57:00,63.0,43.5,29.86,SW,229,2.0,4.0,49,0.00,,,0.00,meteohub,2013-06-28 09:57:00,
2013-06-28 04:02:00,62.8,43.3,29.86,WSW,242,0.0,4.0,49,0.00,,,0.00,meteohub,2013-06-28 10:02:00,
2013-06-28 04:07:00,62.4,43.0,29.86,WSW,242,0.0,4.0,49,0.00,,,0.00,meteohub,2013-06-28 10:07:00,
2013-06-28 04:12:00,62.2,43.3,29.86,WSW,238,0.0,4.0,50,0.00,,,0.00,meteohub,2013-06-28 10:12:00,
2013-06-28 04:17:00,61.9,43.0,29.86,SSW,210,0.0,2.0,50,0.00,,,0.00,meteohub,2013-06-28 10:17:00,
2013-06-28 04:22:00,61.5,43.2,29.86,SW,215,1.0,2.0,51,0.00,,,0.00,meteohub,2013-06-28 10:22:00,
2013-06-28 04:27:00,61.5,43.2,29.87,SW,232,0.0,2.0,51,0.00,,,0.00,meteohub,2013-06-28 10:27:00,
2013-06-28 04:32:00,61.2,43.0,29.86,West,278,1.0,2.0,51,0.00,,,0.00,meteohub,2013-06-28 10:32:00,
2013-06-28 04:37:00,60.4,42.8,29.86,WNW,298,0.0,3.0,52,0.00,,,0.00,meteohub,2013-06-28 10:37:00,
2013-06-28 04:42:00,60.3,42.6,29.86,WNW,286,1.0,3.0,52,0.00,,,0.00,meteohub,2013-06-28 10:42:00,
2013-06-28 04:47:00,60.6,42.4,29.86,WNW,292,0.0,3.0,51,0.00,,,0.00,meteohub,2013-06-28 10:47:00,
2013-06-28 04:52:00,60.4,42.3,29.86,WNW,283,2.0,2.0,51,0.00,,,0.00,meteohub,2013-06-28 10:52:00,
2013-06-28 04:57:00,60.1,41.9,29.86,WNW,296,0.0,3.0,51,0.00,,,0.00,meteohub,2013-06-28 10:57:00,
2013-06-28 05:02:00,60.1,41.9,29.86,WNW,292,1.0,3.0,51,0.00,,,0.00,meteohub,2013-06-28 11:02:00,
2013-06-28 05:07:00,60.1,41.9,29.86,West,271,2.0,4.0,51,0.00,,,0.00,meteohub,2013-06-28 11:07:00,
2013-06-28 05:12:00,59.7,41.5,29.86,WSW,249,3.0,5.0,51,0.00,,,0.00,meteohub,2013-06-28 11:12:00,
2013-06-28 05:17:00,59.7,41.5,29.85,WNW,285,4.0,5.0,51,0.00,,,0.00,meteohub,2013-06-28 11:17:00,
2013-06-28 05:22:00,60.1,42.4,29.85,West,278,2.0,5.0,52,0.00,,,0.00,meteohub,2013-06-28 11:22:00,
2013-06-28 05:27:00,59.7,41.5,29.85,NW,326,4.0,5.0,51,0.00,,,0.00,meteohub,2013-06-28 11:27:00,
2013-06-28 05:32:00,59.4,41.2,29.86,NNW,344,1.0,5.0,51,0.00,,,0.00,meteohub,2013-06-28 11:32:00,
2013-06-28 05:37:00,58.3,40.3,29.86,NNW,336,0.0,4.0,51,0.00,,,0.00,meteohub,2013-06-28 11:37:00,
2013-06-28 05:42:00,57.9,39.9,29.86,NNW,335,3.0,4.0,51,0.00,,,0.00,meteohub,2013-06-28 11:42:00,
2013-06-28 05:47:00,57.7,39.7,29.86,NW,314,1.0,4.0,51,0.00,,,0.00,meteohub,2013-06-28 11:47:00,
2013-06-28 05:52:00,57.6,39.6,29.86,WNW,294,2.0,3.0,51,0.00,,,0.00,meteohub,2013-06-28 11:52:00,
2013-06-28 05:57:00,57.4,40.5,29.86,WNW,285,3.0,3.0,53,0.00,,,0.00,meteohub,2013-06-28 11:57:00,
2013-06-28 06:02:00,57.2,40.3,29.86,WNW,302,3.0,3.0,53,0.00,,,0.00,meteohub,2013-06-28 12:02:00,
2013-06-28 06:07:00,57.6,40.6,29.85,NNW,330,3.0,3.0,53,0.00,,,0.00,meteohub,2013-06-28 12:07:00,
2013-06-28 06:12:00,57.4,39.9,29.86,NW,319,10.0,10.0,52,0.00,,,0.00,meteohub,2013-06-28 12:12:00,
2013-06-28 06:17:00,57.4,39.9,29.86,NNW,335,6.0,10.0,52,0.00,,,0.00,meteohub,2013-06-28 12:17:00,
2013-06-28 06:22:00,57.4,39.9,29.86,NW,323,7.0,10.0,52,0.00,,,0.00,meteohub,2013-06-28 12:22:00,
2013-06-28 06:27:00,57.2,39.7,29.86,NNW,337,5.0,10.0,52,0.00,,,0.00,meteohub,2013-06-28 12:27:00,
2013-06-28 06:32:00,57.0,39.6,29.86,NNW,336,6.0,10.0,52,0.00,,,0.00,meteohub,2013-06-28 12:32:00,
2013-06-28 06:38:00,57.4,40.5,29.86,NNW,328,7.0,10.0,53,0.00,,,0.00,meteohub,2013-06-28 12:38:00,
2013-06-28 06:43:00,57.7,40.3,29.87,NNW,334,10.0,10.0,52,0.00,,,0.00,meteohub,2013-06-28 12:43:00,
2013-06-28 06:48:00,57.9,40.5,29.87,NW,316,9.0,12.0,52,0.00,,,0.00,meteohub,2013-06-28 12:48:00,
2013-06-28 06:53:00,58.6,40.6,29.87,NNW,330,8.0,13.0,51,0.00,,,0.00,meteohub,2013-06-28 12:53:00,
2013-06-28 06:58:00,59.2,40.6,29.87,NNW,347,6.0,13.0,50,0.00,,,0.00,meteohub,2013-06-28 12:58:00,
2013-06-28 07:03:00,59.7,40.5,29.87,NW,321,6.0,13.0,49,0.00,,,0.00,meteohub,2013-06-28 13:03:00,
2013-06-28 07:08:00,60.1,40.8,29.87,NW,326,9.0,13.0,49,0.00,,,0.00,meteohub,2013-06-28 13:08:00,
2013-06-28 07:13:00,60.6,40.8,29.87,North,352,6.0,13.0,48,0.00,,,0.00,meteohub,2013-06-28 13:13:00,
2013-06-28 07:18:00,61.2,41.4,29.87,NW,323,5.0,13.0,48,0.00,,,0.00,meteohub,2013-06-28 13:18:00,
2013-06-28 07:23:00,61.9,41.4,29.87,North,356,5.0,11.0,47,0.00,,,0.00,meteohub,2013-06-28 13:23:00,
2013-06-28 07:28:00,61.9,41.4,29.87,North,353,7.0,10.0,47,0.00,,,0.00,meteohub,2013-06-28 13:28:00,
2013-06-28 07:33:00,62.1,41.0,29.87,NW,319,6.0,10.0,46,0.00,,,0.00,meteohub,2013-06-28 13:33:00,
2013-06-28 07:38:00,61.9,41.4,29.87,NW,316,4.0,10.0,47,0.00,,,0.00,meteohub,2013-06-28 13:38:00,
2013-06-28 07:43:00,62.4,41.4,29.88,NW,321,4.0,12.0,46,0.00,,,0.00,meteohub,2013-06-28 13:43:00,
2013-06-28 07:48:00,62.8,41.7,29.88,NNW,329,7.0,12.0,46,0.00,,,0.00,meteohub,2013-06-28 13:48:00,
2013-06-28 07:54:00,63.7,40.8,29.88,NNW,340,7.0,10.0,43,0.00,,,0.00,meteohub,2013-06-28 13:54:00,
2013-06-28 07:59:00,64.0,40.5,29.88,NW,317,6.0,11.0,42,0.00,,,0.00,meteohub,2013-06-28 13:59:00,
2013-06-28 08:04:00,64.8,41.7,29.88,North,349,7.0,11.0,43,0.00,,,0.00,meteohub,2013-06-28 14:04:00,
2013-06-28 08:09:00,64.6,41.5,29.88,NNW,329,4.0,10.0,43,0.00,,,0.00,meteohub,2013-06-28 14:09:00,
2013-06-28 08:14:00,64.9,42.4,29.88,North,8,3.0,10.0,44,0.00,,,0.00,meteohub,2013-06-28 14:14:00,
2013-06-28 08:19:00,65.7,41.9,29.87,NW,322,5.0,9.0,42,0.00,,,0.00,meteohub,2013-06-28 14:19:00,
2013-06-28 08:24:00,66.0,41.0,29.88,NW,318,3.0,9.0,40,0.00,,,0.00,meteohub,2013-06-28 14:24:00,
2013-06-28 08:29:00,66.4,40.6,29.87,NW,324,7.0,8.0,39,0.00,,,0.00,meteohub,2013-06-28 14:29:00,
2013-06-28 08:34:00,66.6,41.5,29.87,NW,324,4.0,8.0,40,0.00,,,0.00,meteohub,2013-06-28 14:34:00,
2013-06-28 08:39:00,67.3,41.5,29.87,North,351,5.0,9.0,39,0.00,,,0.00,meteohub,2013-06-28 14:39:00,
2013-06-28 08:44:00,67.3,41.5,29.86,NNW,338,3.0,10.0,39,0.00,,,0.00,meteohub,2013-06-28 14:44:00,
2013-06-28 08:50:00,67.8,41.9,29.86,NW,312,3.0,10.0,39,0.00,,,0.00,meteohub,2013-06-28 14:50:00,
2013-06-28 08:55:00,67.6,42.4,29.86,North,6,5.0,10.0,40,0.00,,,0.00,meteohub,2013-06-28 14:55:00,
2013-06-28 09:00:00,67.6,41.7,29.86,NNW,330,4.0,10.0,39,0.00,,,0.00,meteohub,2013-06-28 15:00:00,
2013-06-28 09:05:00,68.4,42.4,29.86,ENE,68,3.0,10.0,39,0.00,,,0.00,meteohub,2013-06-28 15:05:00,
2013-06-28 09:10:00,68.9,43.0,29.86,North,8,5.0,8.0,39,0.00,,,0.00,meteohub,2013-06-28 15:10:00,
2013-06-28 09:15:00,69.4,43.3,29.86,NE,49,3.0,8.0,39,0.00,,,0.00,meteohub,2013-06-28 15:15:00,
2013-06-28 09:20:00,70.0,41.7,29.86,ESE,122,0.0,6.0,36,0.00,,,0.00,meteohub,2013-06-28 15:20:00,
2013-06-28 09:25:00,70.2,41.9,29.86,North,359,5.0,6.0,36,0.00,,,0.00,meteohub,2013-06-28 15:25:00,
2013-06-28 09:30:00,70.9,41.9,29.85,NNE,27,3.0,6.0,35,0.00,,,0.00,meteohub,2013-06-28 15:30:00,
2013-06-28 09:35:00,70.7,42.4,29.85,NNE,27,0.0,6.0,36,0.00,,,0.00,meteohub,2013-06-28 15:35:00,
2013-06-28 09:40:00,71.1,42.8,29.85,NE,44,2.0,8.0,36,0.00,,,0.00,meteohub,2013-06-28 15:40:00,
2013-06-28 09:45:00,71.6,42.4,29.84,North,356,5.0,8.0,35,0.00,,,0.00,meteohub,2013-06-28 15:45:00,
2013-06-28 09:50:00,72.0,42.1,29.84,NNE,24,5.0,8.0,34,0.00,,,0.00,meteohub,2013-06-28 15:50:00,
2013-06-28 09:55:00,72.9,41.4,29.84,SSW,203,2.0,8.0,32,0.00,,,0.00,meteohub,2013-06-28 15:55:00,
2013-06-28 10:01:00,74.7,41.2,29.84,NE,39,1.0,6.0,30,0.00,,,0.00,meteohub,2013-06-28 16:01:00,
2013-06-28 10:06:00,74.8,41.4,29.83,East,84,0.0,6.0,30,0.00,,,0.00,meteohub,2013-06-28 16:06:00,
2013-06-28 10:11:00,75.2,41.7,29.83,NE,44,4.0,6.0,30,0.00,,,0.00,meteohub,2013-06-28 16:11:00,
2013-06-28 10:16:00,75.2,40.8,29.83,East,88,6.0,7.0,29,0.00,,,0.00,meteohub,2013-06-28 16:16:00,
2013-06-28 10:21:00,75.4,40.1,29.83,SSE,157,1.0,7.0,28,0.00,,,0.00,meteohub,2013-06-28 16:21:00,
2013-06-28 10:26:00,75.7,40.3,29.83,North,9,6.0,7.0,28,0.00,,,0.00,meteohub,2013-06-28 16:26:00,
2013-06-28 10:31:00,75.4,40.1,29.83,NE,46,6.0,8.0,28,0.00,,,0.00,meteohub,2013-06-28 16:31:00,
2013-06-28 10:36:00,75.6,41.0,29.83,NNE,18,1.0,8.0,29,0.00,,,0.00,meteohub,2013-06-28 16:36:00,
2013-06-28 10:41:00,76.1,41.5,29.83,NW,320,4.0,8.0,29,0.00,,,0.00,meteohub,2013-06-28 16:41:00,
2013-06-28 10:46:00,76.8,41.2,29.83,NNW,335,2.0,7.0,28,0.00,,,0.00,meteohub,2013-06-28 16:46:00,
2013-06-28 10:51:00,77.7,40.1,29.83,ENE,60,4.0,7.0,26,0.00,,,0.00,meteohub,2013-06-28 16:51:00,
2013-06-28 10:56:00,77.2,40.6,29.83,ESE,115,2.0,8.0,27,0.00,,,0.00,meteohub,2013-06-28 16:56:00,
2013-06-28 11:01:00,77.9,40.3,29.82,WNW,297,0.0,8.0,26,0.00,,,0.00,meteohub,2013-06-28 17:01:00,
2013-06-28 11:06:00,78.6,40.8,29.82,NNW,345,2.0,8.0,26,0.00,,,0.00,meteohub,2013-06-28 17:06:00,
2013-06-28 11:12:00,79.2,40.3,29.82,SW,235,2.0,6.0,25,0.00,,,0.00,meteohub,2013-06-28 17:12:00,
2013-06-28 11:17:00,79.0,40.1,29.81,SSW,204,3.0,7.0,25,0.00,,,0.00,meteohub,2013-06-28 17:17:00,
2013-06-28 11:22:00,79.7,39.7,29.81,SSE,158,2.0,7.0,24,0.00,,,0.00,meteohub,2013-06-28 17:22:00,
2013-06-28 11:27:00,79.9,38.8,29.81,East,86,5.0,7.0,23,0.00,,,0.00,meteohub,2013-06-28 17:27:00,
2013-06-28 11:32:00,79.3,39.4,29.81,NNE,30,3.0,7.0,24,0.00,,,0.00,meteohub,2013-06-28 17:32:00,
2013-06-28 11:37:00,80.2,39.0,29.80,NNW,340,2.0,7.0,23,0.00,,,0.00,meteohub,2013-06-28 17:37:00,
2013-06-28 11:42:00,80.2,34.2,29.80,NNW,331,3.0,7.0,19,0.00,,,0.00,meteohub,2013-06-28 17:42:00,
2013-06-28 11:47:00,80.4,35.6,29.80,NW,324,0.0,7.0,20,0.00,,,0.00,meteohub,2013-06-28 17:47:00,
2013-06-28 11:52:00,81.1,36.3,29.80,ESE,119,6.0,7.0,20,0.00,,,0.00,meteohub,2013-06-28 17:52:00,
2013-06-28 11:57:00,81.9,35.6,29.79,ENE,66,3.0,7.0,19,0.00,,,0.00,meteohub,2013-06-28 17:57:00,
2013-06-28 12:02:00,81.9,29.7,29.79,NE,44,3.0,8.0,15,0.00,,,0.00,meteohub,2013-06-28 18:02:00,
2013-06-28 12:07:00,81.1,32.2,29.79,ENE,75,1.0,8.0,17,0.00,,,0.00,meteohub,2013-06-28 18:07:00,
2013-06-28 12:12:00,82.2,30.0,29.79,NE,35,7.0,8.0,15,0.00,,,0.00,meteohub,2013-06-28 18:12:00,
2013-06-28 12:17:00,82.0,28.2,29.78,NNW,329,6.0,8.0,14,0.00,,,0.00,meteohub,2013-06-28 18:17:00,
2013-06-28 12:22:00,82.0,28.2,29.79,NNE,16,5.0,7.0,14,0.00,,,0.00,meteohub,2013-06-28 18:22:00,
2013-06-28 12:27:00,83.1,27.1,29.78,NW,322,4.0,7.0,13,0.00,,,0.00,meteohub,2013-06-28 18:27:00,
2013-06-28 12:32:00,82.2,28.2,29.78,NNW,340,3.0,11.0,14,0.00,,,0.00,meteohub,2013-06-28 18:32:00,
2013-06-28 12:37:00,83.5,27.5,29.78,NNW,341,2.0,11.0,13,0.00,,,0.00,meteohub,2013-06-28 18:37:00,
2013-06-28 12:42:00,83.3,27.3,29.78,North,5,3.0,11.0,13,0.00,,,0.00,meteohub,2013-06-28 18:42:00,
2013-06-28 12:47:00,83.7,29.5,29.78,NW,326,6.0,9.0,14,0.00,,,0.00,meteohub,2013-06-28 18:47:00,
2013-06-28 12:52:00,84.0,27.9,29.78,ESE,103,4.0,9.0,13,0.00,,,0.00,meteohub,2013-06-28 18:52:00,
2013-06-28 12:57:00,84.9,30.4,29.77,East,92,3.0,9.0,14,0.00,,,0.00,meteohub,2013-06-28 18:57:00,
2013-06-28 13:02:00,84.4,28.2,29.77,East,95,4.0,12.0,13,0.00,,,0.00,meteohub,2013-06-28 19:02:00,
2013-06-28 13:07:00,84.6,30.2,29.76,NW,319,4.0,12.0,14,0.00,,,0.00,meteohub,2013-06-28 19:07:00,
2013-06-28 13:12:00,84.4,28.2,29.77,East,91,2.0,13.0,13,0.00,,,0.00,meteohub,2013-06-28 19:12:00,
2013-06-28 13:17:00,84.7,30.2,29.76,NNE,12,3.0,13.0,14,0.00,,,0.00,meteohub,2013-06-28 19:17:00,
2013-06-28 13:22:00,84.4,28.2,29.76,North,350,7.0,13.0,13,0.00,,,0.00,meteohub,2013-06-28 19:22:00,
2013-06-28 13:27:00,84.0,27.9,29.75,NW,308,3.0,9.0,13,0.00,,,0.00,meteohub,2013-06-28 19:27:00,
2013-06-28 13:32:00,83.5,27.5,29.75,NNW,330,9.0,9.0,13,0.00,,,0.00,meteohub,2013-06-28 19:32:00,
2013-06-28 13:37:00,83.1,28.9,29.75,ENE,70,6.0,10.0,14,0.00,,,0.00,meteohub,2013-06-28 19:37:00,
2013-06-28 13:42:00,82.9,28.8,29.75,East,83,0.0,10.0,14,0.00,,,0.00,meteohub,2013-06-28 19:42:00,
2013-06-28 13:47:00,83.5,29.3,29.75,NW,312,3.0,9.0,14,0.00,,,0.00,meteohub,2013-06-28 19:47:00,
2013-06-28 13:52:00,83.5,29.3,29.75,NW,313,1.0,6.0,14,0.00,,,0.00,meteohub,2013-06-28 19:52:00,
2013-06-28 13:57:00,83.3,29.1,29.74,NNW,339,2.0,5.0,14,0.00,,,0.00,meteohub,2013-06-28 19:57:00,
2013-06-28 14:02:00,83.1,27.1,29.75,NNW,330,2.0,6.0,13,0.00,,,0.00,meteohub,2013-06-28 20:02:00,
2013-06-28 14:07:00,84.2,31.5,29.74,SE,141,5.0,6.0,15,0.00,,,0.00,meteohub,2013-06-28 20:07:00,
2013-06-28 14:12:00,85.5,32.5,29.74,NW,313,6.0,8.0,15,0.00,,,0.00,meteohub,2013-06-28 20:12:00,
2013-06-28 14:17:00,85.5,34.2,29.73,West,263,6.0,11.0,16,0.00,,,0.00,meteohub,2013-06-28 20:17:00,
2013-06-28 14:22:00,85.6,32.7,29.73,SW,232,10.0,12.0,15,0.00,,,0.00,meteohub,2013-06-28 20:22:00,
2013-06-28 14:27:00,85.5,32.5,29.73,SW,235,3.0,15.0,15,0.00,,,0.00,meteohub,2013-06-28 20:27:00,
2013-06-28 14:32:00,85.3,32.4,29.73,SW,215,10.0,15.0,15,0.00,,,0.00,meteohub,2013-06-28 20:32:00,
2013-06-28 14:37:00,85.8,32.9,29.72,SW,226,12.0,15.0,15,0.00,,,0.00,meteohub,2013-06-28 20:37:00,
2013-06-28 14:42:00,85.8,31.1,29.72,SW,214,9.0,13.0,14,0.00,,,0.00,meteohub,2013-06-28 20:42:00,
2013-06-28 14:47:00,84.9,32.2,29.72,SSE,165,4.0,15.0,15,0.00,,,0.00,meteohub,2013-06-28 20:47:00,
2013-06-28 14:52:00,84.6,31.8,29.72,SW,232,3.0,15.0,15,0.00,,,0.00,meteohub,2013-06-28 20:52:00,
2013-06-28 14:58:00,83.8,31.3,29.72,NW,321,3.0,15.0,15,0.00,,,0.00,meteohub,2013-06-28 20:58:00,
2013-06-28 15:03:00,83.5,29.3,29.73,NNW,339,3.0,11.0,14,0.00,,,0.00,meteohub,2013-06-28 21:03:00,
2013-06-28 15:08:00,82.4,28.4,29.73,NW,316,10.0,10.0,14,0.00,,,0.00,meteohub,2013-06-28 21:08:00,
2013-06-28 15:13:00,81.9,28.0,29.72,North,350,8.0,15.0,14,0.00,,,0.00,meteohub,2013-06-28 21:13:00,
2013-06-28 15:18:00,81.1,27.5,29.73,WSW,238,7.0,18.0,14,0.00,,,0.00,meteohub,2013-06-28 21:18:00,
2013-06-28 15:23:00,81.0,28.9,29.72,West,279,5.0,28.0,15,0.00,,,0.00,meteohub,2013-06-28 21:23:00,
2013-06-28 15:28:00,80.2,34.2,29.73,West,267,10.0,28.0,19,0.00,,,0.00,meteohub,2013-06-28 21:28:00,
2013-06-28 15:33:00,79.0,34.5,29.73,NW,321,7.0,24.0,20,0.00,,,0.00,meteohub,2013-06-28 21:33:00,
2013-06-28 15:38:00,78.1,34.9,29.73,WNW,291,14.0,23.0,21,0.00,,,0.00,meteohub,2013-06-28 21:38:00,
2013-06-28 15:43:00,77.7,34.7,29.72,WNW,295,7.0,23.0,21,0.00,,,0.00,meteohub,2013-06-28 21:43:00,
2013-06-28 15:48:00,77.9,34.9,29.72,West,272,14.0,22.0,21,0.00,,,0.00,meteohub,2013-06-28 21:48:00,
2013-06-28 15:53:00,77.7,34.7,29.72,West,267,9.0,20.0,21,0.00,,,0.00,meteohub,2013-06-28 21:53:00,
2013-06-28 15:58:00,77.7,33.4,29.72,WNW,283,13.0,21.0,20,0.00,,,0.00,meteohub,2013-06-28 21:58:00,
2013-06-28 16:03:00,77.9,33.6,29.72,North,353,4.0,21.0,20,0.00,,,0.00,meteohub,2013-06-28 22:03:00,
2013-06-28 16:08:00,78.1,33.8,29.71,West,278,2.0,21.0,20,0.00,,,0.00,meteohub,2013-06-28 22:08:00,
2013-06-28 16:14:00,78.6,34.2,29.71,NNW,327,3.0,19.0,20,0.00,,,0.00,meteohub,2013-06-28 22:14:00,
2013-06-28 16:19:00,79.2,34.7,29.71,NNW,331,3.0,17.0,20,0.00,,,0.00,meteohub,2013-06-28 22:19:00,
2013-06-28 16:24:00,79.7,36.3,29.71,WNW,293,6.0,15.0,21,0.00,,,0.00,meteohub,2013-06-28 22:24:00,
2013-06-28 16:29:00,80.1,36.7,29.71,NNW,330,6.0,12.0,21,0.00,,,0.00,meteohub,2013-06-28 22:29:00,
2013-06-28 16:34:00,80.2,36.7,29.71,NNW,338,4.0,12.0,21,0.00,,,0.00,meteohub,2013-06-28 22:34:00,
2013-06-28 16:39:00,79.5,37.4,29.71,NW,307,3.0,11.0,22,0.00,,,0.00,meteohub,2013-06-28 22:39:00,
2013-06-28 16:44:00,79.5,34.9,29.71,WNW,302,8.0,14.0,20,0.00,,,0.00,meteohub,2013-06-28 22:44:00,
2013-06-28 16:49:00,79.9,36.5,29.71,NW,321,2.0,14.0,21,0.00,,,0.00,meteohub,2013-06-28 22:49:00,
2013-06-28 16:54:00,79.3,36.0,29.71,West,276,1.0,11.0,21,0.00,,,0.00,meteohub,2013-06-28 22:54:00,
2013-06-28 16:59:00,79.5,36.1,29.71,WNW,284,3.0,12.0,21,0.00,,,0.00,meteohub,2013-06-28 22:59:00,
2013-06-28 17:04:00,79.7,36.3,29.72,ESE,112,3.0,12.0,21,0.00,,,0.00,meteohub,2013-06-28 23:04:00,
2013-06-28 17:09:00,79.5,36.1,29.72,NNW,342,6.0,12.0,21,0.00,,,0.00,meteohub,2013-06-28 23:09:00,
2013-06-28 17:14:00,79.0,37.9,29.73,WNW,290,4.0,14.0,23,0.00,,,0.00,meteohub,2013-06-28 23:14:00,
2013-06-28 17:20:00,78.4,37.6,29.74,NNW,338,0.0,14.0,23,0.00,,,0.00,meteohub,2013-06-28 23:20:00,
2013-06-28 17:25:00,78.1,36.1,29.74,East,86,5.0,14.0,22,0.00,,,0.00,meteohub,2013-06-28 23:25:00,
2013-06-28 17:30:00,77.9,37.0,29.74,South,170,4.0,12.0,23,0.00,,,0.00,meteohub,2013-06-28 23:30:00,
2013-06-28 17:35:00,77.7,38.1,29.73,South,169,6.0,15.0,24,0.00,,,0.00,meteohub,2013-06-28 23:35:00,
2013-06-28 17:40:00,77.5,37.9,29.73,WSW,257,3.0,15.0,24,0.00,,,0.00,meteohub,2013-06-28 23:40:00,
2013-06-28 17:45:00,77.4,37.8,29.73,SSW,200,11.0,16.0,24,0.00,,,0.00,meteohub,2013-06-28 23:45:00,
2013-06-28 17:50:00,76.5,37.9,29.74,NW,304,4.0,16.0,25,0.00,,,0.00,meteohub,2013-06-28 23:50:00,
2013-06-28 17:55:00,75.7,39.4,29.75,WSW,238,13.0,18.0,27,0.00,,,0.00,meteohub,2013-06-28 23:55:00,
2013-06-28 18:00:00,75.0,38.8,29.75,SW,231,10.0,20.0,27,0.00,,,0.00,meteohub,2013-06-29 00:00:00,
2013-06-28 18:05:00,74.7,39.4,29.75,SSE,152,5.0,20.0,28,0.00,,,0.00,meteohub,2013-06-29 00:05:00,
2013-06-28 18:10:00,74.5,38.3,29.74,SW,231,14.0,20.0,27,0.00,,,0.00,meteohub,2013-06-29 00:10:00,
2013-06-28 18:15:00,74.1,37.9,29.73,SSW,201,5.0,20.0,27,0.00,,,0.00,meteohub,2013-06-29 00:15:00,
2013-06-28 18:20:00,73.9,38.8,29.73,South,170,16.0,20.0,28,0.00,,,0.00,meteohub,2013-06-29 00:20:00,
2013-06-28 18:25:00,73.8,38.7,29.74,SSW,198,16.0,20.0,28,0.00,,,0.00,meteohub,2013-06-29 00:25:00,
2013-06-28 18:31:00,73.6,38.5,29.74,SSW,204,10.0,20.0,28,0.00,,,0.00,meteohub,2013-06-29 00:31:00,
2013-06-28 18:36:00,73.6,38.5,29.75,SW,236,6.0,20.0,28,0.00,,,0.00,meteohub,2013-06-29 00:36:00,
2013-06-28 18:41:00,73.4,38.3,29.75,SW,224,8.0,17.0,28,0.00,,,0.00,meteohub,2013-06-29 00:41:00,
2013-06-28 18:46:00,73.4,38.3,29.75,South,181,6.0,15.0,28,0.00,,,0.00,meteohub,2013-06-29 00:46:00,
2013-06-28 18:51:00,73.4,37.4,29.75,SW,226,6.0,15.0,27,0.00,,,0.00,meteohub,2013-06-29 00:51:00,
2013-06-28 18:56:00,73.6,37.6,29.76,South,177,6.0,12.0,27,0.00,,,0.00,meteohub,2013-06-29 00:56:00,
2013-06-28 19:01:00,73.6,37.6,29.76,WNW,290,5.0,11.0,27,0.00,,,0.00,meteohub,2013-06-29 01:01:00,
2013-06-28 19:06:00,73.6,37.6,29.77,SW,218,4.0,11.0,27,0.00,,,0.00,meteohub,2013-06-29 01:06:00,
2013-06-28 19:11:00,73.6,37.6,29.78,South,170,8.0,11.0,27,0.00,,,0.00,meteohub,2013-06-29 01:11:00,
2013-06-28 19:16:00,73.8,37.8,29.78,SSE,158,7.0,11.0,27,0.00,,,0.00,meteohub,2013-06-29 01:16:00,
2013-06-28 19:21:00,73.4,39.2,29.79,East,81,13.0,13.0,29,0.00,,,0.00,meteohub,2013-06-29 01:21:00,
2013-06-28 19:26:00,72.9,39.6,29.80,ESE,104,6.0,17.0,30,0.00,,,0.00,meteohub,2013-06-29 01:26:00,
2013-06-28 19:31:00,72.3,39.2,29.80,SE,134,13.0,17.0,30,0.00,,,0.00,meteohub,2013-06-29 01:31:00,
2013-06-28 19:36:00,71.4,39.2,29.80,ESE,120,15.0,15.0,31,0.00,,,0.00,meteohub,2013-06-29 01:36:00,
2013-06-28 19:41:00,70.9,39.6,29.80,ESE,109,14.0,18.0,32,0.00,,,0.00,meteohub,2013-06-29 01:41:00,
2013-06-28 19:47:00,70.2,40.5,29.80,East,96,10.0,21.0,34,0.00,,,0.00,meteohub,2013-06-29 01:47:00,
2013-06-28 19:52:00,69.8,39.4,29.81,East,89,7.0,21.0,33,0.00,,,0.00,meteohub,2013-06-29 01:52:00,
2013-06-28 19:57:00,69.4,39.9,29.81,SSE,152,2.0,21.0,34,0.00,,,0.00,meteohub,2013-06-29 01:57:00,
2013-06-28 20:02:00,69.3,39.7,29.81,SE,139,3.0,14.0,34,0.00,,,0.00,meteohub,2013-06-29 02:02:00,
2013-06-28 20:07:00,69.3,39.7,29.81,South,169,6.0,12.0,34,0.00,,,0.00,meteohub,2013-06-29 02:07:00,
2013-06-28 20:12:00,69.1,39.6,29.81,SSW,212,5.0,9.0,34,0.00,,,0.00,meteohub,2013-06-29 02:12:00,
2013-06-28 20:17:00,69.1,39.6,29.81,SSW,212,4.0,9.0,34,0.00,,,0.00,meteohub,2013-06-29 02:17:00,
2013-06-28 20:22:00,68.9,39.4,29.82,SSW,208,3.0,12.0,34,0.00,,,0.00,meteohub,2013-06-29 02:22:00,
2013-06-28 20:27:00,69.1,39.6,29.83,West,276,2.0,12.0,34,0.00,,,0.00,meteohub,2013-06-29 02:27:00,
2013-06-28 20:32:00,68.9,40.1,29.83,SSW,198,7.0,12.0,35,0.00,,,0.00,meteohub,2013-06-29 02:32:00,
2013-06-28 20:37:00,68.7,39.9,29.82,SSW,197,20.0,20.0,35,0.00,,,0.00,meteohub,2013-06-29 02:37:00,
2013-06-28 20:42:00,69.1,39.6,29.80,South,186,20.0,20.0,34,0.00,,,0.00,meteohub,2013-06-29 02:42:00,
2013-06-28 20:47:00,69.1,40.3,29.80,SW,216,16.0,25.0,35,0.00,,,0.00,meteohub,2013-06-29 02:47:00,
2013-06-28 20:52:00,68.7,40.6,29.82,WNW,291,9.0,29.0,36,0.00,,,0.00,meteohub,2013-06-29 02:52:00,
2013-06-28 20:57:00,68.4,40.3,29.83,East,79,10.0,29.0,36,0.00,,,0.00,meteohub,2013-06-29 02:57:00,
2013-06-28 21:02:00,68.4,40.3,29.83,ESE,111,12.0,24.0,36,0.00,,,0.00,meteohub,2013-06-29 03:02:00,
2013-06-28 21:07:00,68.2,41.0,29.83,SW,218,13.0,24.0,37,0.00,,,0.00,meteohub,2013-06-29 03:07:00,
2013-06-28 21:12:00,67.6,41.2,29.83,WSW,254,12.0,26.0,38,0.00,,,0.00,meteohub,2013-06-29 03:12:00,
2013-06-28 21:17:00,67.3,41.5,29.83,SSE,166,13.0,26.0,39,0.00,,,0.00,meteohub,2013-06-29 03:17:00,
2013-06-28 21:22:00,66.7,41.0,29.83,SSE,150,13.0,26.0,39,0.00,,,0.00,meteohub,2013-06-29 03:22:00,
2013-06-28 21:27:00,66.6,41.5,29.82,SSE,158,9.0,23.0,40,0.00,,,0.00,meteohub,2013-06-29 03:27:00,
2013-06-28 21:32:00,66.0,41.7,29.82,South,180,10.0,20.0,41,0.00,,,0.00,meteohub,2013-06-29 03:32:00,
2013-06-28 21:37:00,65.7,41.9,29.82,SSE,160,11.0,20.0,42,0.00,,,0.00,meteohub,2013-06-29 03:37:00,
2013-06-28 21:42:00,65.1,42.1,29.81,SE,128,7.0,20.0,43,0.00,,,0.00,meteohub,2013-06-29 03:42:00,
2013-06-28 21:47:00,64.6,42.3,29.81,SW,219,5.0,20.0,44,0.00,,,0.00,meteohub,2013-06-29 03:47:00,
2013-06-28 21:52:00,64.2,41.9,29.81,SSE,160,9.0,21.0,44,0.00,,,0.00,meteohub,2013-06-29 03:52:00,
2013-06-28 21:57:00,64.0,42.3,29.81,SSW,203,8.0,21.0,45,0.00,,,0.00,meteohub,2013-06-29 03:57:00,
2013-06-28 22:01:00,63.9,42.1,29.81,South,169,6.0,21.0,45,0.00,,,0.00,meteohub,2013-06-29 04:01:00,
2013-06-28 22:03:00,63.9,41.5,29.82,South,174,7.0,21.0,44,0.00,,,0.00,meteohub,2013-06-29 04:03:00,
2013-06-28 22:04:00,63.9,42.1,29.82,SSE,158,7.0,21.0,45,0.00,,,0.00,meteohub,2013-06-29 04:04:00,
2013-06-28 22:05:00,63.9,41.5,29.82,South,186,2.0,16.0,44,0.00,,,0.00,meteohub,2013-06-29 04:05:00,
2013-06-28 22:10:00,64.2,41.9,29.82,SE,138,7.0,20.0,44,0.00,,,0.00,meteohub,2013-06-29 04:10:00,
2013-06-28 22:16:00,64.0,41.7,29.82,SSE,165,6.0,20.0,44,0.00,,,0.00,meteohub,2013-06-29 04:16:00,
2013-06-28 22:17:00,63.9,41.5,29.82,SSE,148,3.0,20.0,44,0.00,,,0.00,meteohub,2013-06-29 04:17:00,
2013-06-28 22:22:00,63.7,41.4,29.82,SSW,201,13.0,20.0,44,0.00,,,0.00,meteohub,2013-06-29 04:22:00,
2013-06-28 22:27:00,64.0,41.2,29.83,SSE,160,8.0,13.0,43,0.00,,,0.00,meteohub,2013-06-29 04:27:00,
2013-06-28 22:32:00,64.0,41.2,29.83,SW,228,3.0,13.0,43,0.00,,,0.00,meteohub,2013-06-29 04:32:00,
2013-06-28 22:37:00,63.9,41.0,29.83,SSW,203,8.0,13.0,43,0.00,,,0.00,meteohub,2013-06-29 04:37:00,
2013-06-28 22:42:00,64.0,40.5,29.83,SW,236,7.0,13.0,42,0.00,,,0.00,meteohub,2013-06-29 04:42:00,
2013-06-28 22:47:00,64.2,40.1,29.83,South,177,6.0,13.0,41,0.00,,,0.00,meteohub,2013-06-29 04:47:00,
2013-06-28 22:52:00,64.4,40.1,29.83,South,171,10.0,15.0,41,0.00,,,0.00,meteohub,2013-06-29 04:52:00,
2013-06-28 22:57:00,64.8,40.5,29.84,WSW,242,7.0,19.0,41,0.00,,,0.00,meteohub,2013-06-29 04:57:00,
2013-06-28 23:02:00,64.8,39.9,29.84,SSW,208,9.0,19.0,40,0.00,,,0.00,meteohub,2013-06-29 05:02:00,
2013-06-28 23:07:00,64.8,39.9,29.84,South,184,5.0,19.0,40,0.00,,,0.00,meteohub,2013-06-29 05:07:00,
2013-06-28 23:12:00,64.8,39.9,29.84,SSW,210,7.0,16.0,40,0.00,,,0.00,meteohub,2013-06-29 05:12:00,
2013-06-28 23:17:00,64.6,40.3,29.84,SW,217,10.0,16.0,41,0.00,,,0.00,meteohub,2013-06-29 05:17:00,
2013-06-28 23:22:00,64.4,40.1,29.84,SW,214,12.0,13.0,41,0.00,,,0.00,meteohub,2013-06-29 05:22:00,
2013-06-28 23:27:00,64.2,40.1,29.84,South,183,4.0,13.0,41,0.00,,,0.00,meteohub,2013-06-29 05:27:00,
2013-06-28 23:32:00,64.0,39.9,29.85,SW,226,9.0,13.0,41,0.00,,,0.00,meteohub,2013-06-29 05:32:00,
2013-06-28 23:37:00,63.9,39.7,29.85,SW,218,4.0,12.0,41,0.00,,,0.00,meteohub,2013-06-29 05:37:00,
2013-06-28 23:42:00,63.7,39.6,29.84,WSW,257,2.0,11.0,41,0.00,,,0.00,meteohub,2013-06-29 05:42:00,
2013-06-28 23:47:00,63.5,39.9,29.84,SW,236,3.0,11.0,42,0.00,,,0.00,meteohub,2013-06-29 05:47:00,
2013-06-28 23:52:00,63.1,39.7,29.85,West,270,0.0,10.0,42,0.00,,,0.00,meteohub,2013-06-29 05:52:00,
2013-06-28 23:57:00,62.8,39.9,29.85,SE,133,0.0,10.0,43,0.00,,,0.00,meteohub,2013-06-29 05:57:00,